[2025-02-02 00:00:00, 2025-02-02 23:59:59] previous next
| time | temperature | air pressure | humidity | solar radiation | wind speed |
|---|---|---|---|---|---|
| 2025-02-02 08:18:09 | -2.5 | 1015.8 | 99.0 | 17.3 | 0.0 |
| 2025-02-02 08:38:09 | -2.2 | 1015.8 | 99.0 | 19.8 | 0.0 |
| 2025-02-02 08:58:09 | -1.0 | 1015.8 | 99.0 | 22.9 | 0.0 |
| 2025-02-02 09:18:09 | 0.4 | 1015.8 | 99.0 | 24.4 | 0.0 |
| 2025-02-02 09:38:11 | -0.3 | 1016.1 | 99.0 | 25.8 | 0.0 |
| 2025-02-02 09:58:10 | 2.3 | 1016.1 | 95.0 | 27.8 | 0.7 |
| 2025-02-02 10:18:09 | 2.6 | 1016.1 | 86.0 | 31.8 | 0.4 |
| 2025-02-02 10:38:09 | 2.9 | 1015.8 | 84.0 | 36.7 | 0.6 |
| 2025-02-02 10:58:09 | 4.8 | 1016.1 | 81.0 | 60.5 | 0.4 |
| 2025-02-02 11:18:10 | 5.3 | 1015.8 | 74.0 | 94.8 | 1.5 |
| 2025-02-02 11:38:09 | 5.7 | 1015.8 | 73.0 | 142.3 | 1.1 |
| 2025-02-02 11:58:09 | 6.9 | 1016.1 | 71.0 | 196.9 | 0.0 |
| 2025-02-02 12:18:09 | 8.3 | 1015.8 | 67.0 | 237.5 | 0.0 |
| 2025-02-02 12:38:10 | 7.9 | 1015.8 | 65.0 | 249.6 | 1.0 |
| 2025-02-02 12:58:09 | 8.5 | 1015.4 | 67.0 | 251.5 | 0.0 |
| 2025-02-02 13:18:09 | 6.0 | 1015.4 | 72.0 | 243.6 | 1.0 |
| 2025-02-02 13:38:09 | 6.3 | 1015.4 | 72.0 | 237.8 | 2.1 |
| 2025-02-02 13:58:09 | 6.4 | 1015.4 | 70.0 | 229.6 | 0.6 |
| 2025-02-02 14:18:10 | 6.4 | 1015.4 | 70.0 | 217.9 | 0.0 |
| 2025-02-02 14:38:09 | 6.4 | 1015.1 | 71.0 | 195.3 | 1.4 |
| 2025-02-02 14:58:10 | 7.5 | 1015.4 | 66.0 | 171.1 | 0.3 |
CSV export: /station/IWELLEN5/data?period=20250202T000000/20250202T235959&format=csv&tz=GMT